Tracking 29892 objects as of 21-Nov-2024
HD Live streaming from Space Station
objects crossing your sky now

STARLINK-30943

Track STARLINK-30943 now!
10-day predictions
STARLINK-30943 is classified as:


NORAD ID: 58449
Int'l Code: 2023-183N
Perigee: 565.5 km
Apogee: 566.9 km
Inclination: 43.0 °
Period: 95.8 minutes
Semi major axis: 6937 km
RCS: Unknown
Launch date: November 28, 2023
Source: United States (US)
Launch site: AIR FORCE EASTERN TEST RANGE (AFETR)
Your satellite tracking list
Your tracking list is empty




NASA's NSSDC Master Catalog

Two Line Element Set (TLE):
1 58449U 23183N   24324.66352377  .00000896  00000-0  81407-4 0  9998
2 58449  43.0042  78.8140 0001061 267.8297  92.2424 15.02542298 55553
Source of the keplerian elements: AFSPC